Theta_e
299 297 296 296 295 295 294 294 293 293 294 294 294 294 294 295 295 295 295 294 294 294 294 294 294 294 294 294 294 293 294 297 300 302 302 303 306 308 309 309 310 311 310
295 295 294 294 293 293 293 293 293 293 293 294 294 294 293 292 292 291 291 291 291 291 290 290 290 290 291 291 292 292 292 292 295 297 299 300 301 301 305 307 307 308 308
294 293 293 293 292 292 292 293 293 293 293 292 291 291 290 290 290 289 289 289 288 288 288 288 288 288 288 289 289 290 290 291 292 294 294 296 298 299 299 301 303 304 305
293 292 292 292 292 293 293 292 291 290 290 289 289 288 288 288 288 287 287 287 287 287 287 287 287 287 287 287 287 288 289 290 291 293 294 294 295 295 297 297 299 301 301
292 291 292 293 293 292 292 291 290 289 288 287 287 287 287 286 286 286 286 286 286 286 286 286 285 285 285 285 286 286 288 289 290 289 290 291 292 293 294 294 296 297 299
291 292 293 292 291 290 289 288 288 287 287 286 286 286 286 285 285 285 285 285 285 285 285 284 284 284 284 284 284 284 285 287 287 287 288 289 291 291 292 292 293 293 292
292 291 291 290 289 288 287 287 286 286 285 285 285 285 285 284 284 284 284 284 284 284 283 283 283 283 283 283 283 283 283 284 285 286 286 287 288 289 291 293 292 292 292
290 290 289 288 287 287 286 286 285 285 284 284 284 284 283 283 283 283 283 282 282 282 282 282 282 282 282 281 281 281 282 282 283 284 285 285 287 287 288 289 292 292 292
289 288 287 287 286 286 285 285 284 284 284 283 283 282 282 282 282 281 281 280 280 280 280 280 279 280 279 279 280 280 281 282 282 282 283 284 285 286 287 288 290 290 288
288 288 287 286 285 284 284 283 283 283 282 281 282 282 281 281 281 280 279 278 279 278 278 278 278 278 278 279 279 280 280 281 282 283 283 283 285 286 286 287 288 289 288
287 286 285 284 283 283 283 283 282 281 281 281 281 281 281 280 279 278 277 277 277 276 276 276 276 276 277 278 278 279 280 282 282 283 283 284 284 285 287 287 287 288 288
285 284 284 283 283 282 282 282 281 281 281 280 280 280 280 279 277 276 275 275 275 274 275 275 275 276 275 276 277 278 279 279 281 282 284 284 285 286 287 287 287 287 288
284 283 283 283 282 282 281 280 280 280 280 280 279 278 277 276 275 275 274 274 273 274 274 274 274 274 275 276 276 277 277 278 279 281 282 283 284 284 285 285 285 286 286
283 283 282 282 281 280 279 279 279 279 279 278 276 276 275 275 274 273 273 272 273 273 272 271 271 272 272 273 275 276 277 277 277 279 279 281 282 283 283 283 283 284 284
283 282 281 281 280 279 279 279 278 277 276 275 274 274 273 273 272 272 272 273 272 272 270 271 272 272 272 272 273 274 275 276 275 277 278 279 279 281 281 280 281 281 281
282 281 280 280 279 278 279 279 278 277 276 276 275 274 273 272 272 273 272 271 271 270 271 271 271 270 269 270 271 272 273 274 274 276 277 277 277 278 278 279 279 278 278
281 280 280 278 277 277 277 277 277 278 277 276 275 274 274 273 273 272 271 270 271 270 270 269 268 268 269 269 270 270 272 273 273 274 275 276 276 276 277 277 277 276 276
280 279 277 277 276 276 276 276 275 275 275 275 274 274 273 272 272 270 270 271 271 271 269 269 268 268 268 268 269 270 271 272 272 273 274 274 275 275 276 276 275 275 275
278 277 276 276 276 276 276 275 275 274 273 273 273 273 272 272 272 270 269 269 269 269 269 268 268 268 268 268 268 269 270 271 271 272 273 273 273 274 274 274 274 274 274
277 276 276 276 276 275 275 274 274 273 272 272 272 271 271 271 270 270 269 269 268 268 268 268 267 267 267 267 267 268 269 270 271 272 272 272 272 273 273 274 273 273 273
276 275 275 275 275 275 274 273 272 272 271 271 271 270 270 269 269 269 269 268 268 267 267 267 267 267 267 267 267 267 268 270 270 271 271 272 272 272 273 273 273 273 272
275 275 275 275 275 274 273 272 271 271 270 270 270 270 269 269 269 269 268 268 267 267 266 266 266 266 266 266 266 266 268 268 269 270 271 271 271 272 272 272 272 272 272
275 275 274 274 273 273 272 271 271 270 270 270 269 269 269 269 268 268 268 267 267 266 266 266 266 266 266 266 266 266 266 267 268 268 269 270 271 271 271 271 272 272 272
274 274 274 273 273 272 272 271 271 270 269 269 269 269 268 268 267 267 266 266 266 266 266 266 266 266 266 266 266 266 266 267 267 268 268 269 270 270 271 271 271 271 271
273 273 273 273 272 271 271 271 270 270 269 268 268 268 267 267 266 265 265 265 265 265 266 266 266 266 266 266 266 266 266 267 267 267 267 268 268 269 270 270 270 270 270
273 273 272 272 271 271 270 270 270 269 268 268 267 267 266 266 265 264 264 264 264 265 265 265 266 266 266 266 266 266 266 267 267 265 266 267 267 268 268 268 269 269 269
Wind_Speed
5 2 2 4 6 8 11 12 15 17 19 21 23 26 27 28 29 30 30 30 32 32 32 33 33 34 35 36 35 34 33 30 33 56 45 48 49 47 46 47 46 45 47
2 3 5 7 8 10 13 15 17 20 22 24 25 26 27 28 29 29 30 31 32 34 34 36 35 35 34 33 33 35 36 34 32 44 49 46 50 48 46 46 45 47 47
3 5 7 9 11 15 18 21 23 24 25 26 26 27 28 29 32 33 34 36 37 38 38 38 38 37 36 36 35 36 37 37 35 37 51 46 49 47 45 46 46 47 48
5 7 10 13 17 20 22 23 25 26 27 27 28 29 30 31 33 35 36 37 39 39 39 38 38 38 39 39 38 38 39 37 33 35 40 45 41 48 45 45 48 50 49
8 10 14 18 20 21 23 23 24 26 26 28 29 29 30 32 34 36 38 39 40 40 40 40 41 41 41 40 39 38 36 36 36 38 41 40 41 38 47 46 48 49 52
11 14 16 19 21 21 22 24 24 25 26 28 30 30 32 32 33 34 36 38 39 41 43 43 43 43 43 43 41 37 34 36 39 40 44 44 46 43 43 46 49 44 47
13 16 18 19 20 22 23 24 24 25 27 28 29 31 32 32 33 34 36 38 40 42 44 45 47 45 46 46 44 41 39 36 36 39 45 50 50 48 45 48 51 50 50
14 16 18 20 21 22 22 24 24 26 28 29 31 31 31 32 34 36 39 40 42 43 45 46 48 50 48 44 45 48 50 47 42 41 44 49 50 50 45 44 51 56 53
14 17 19 22 22 22 22 23 25 26 27 28 28 30 32 34 37 40 42 44 46 47 47 48 50 50 44 42 46 53 58 58 53 45 46 48 50 48 47 45 47 46 42
16 18 20 21 21 20 20 22 24 25 26 27 28 30 33 36 39 41 42 44 48 49 50 53 49 41 44 45 49 52 55 57 55 54 53 51 50 53 46 45 43 44 44
16 18 18 17 16 18 20 22 23 24 25 27 30 32 35 39 42 43 43 42 39 47 53 53 49 45 47 50 46 47 46 47 51 50 51 50 45 48 45 41 39 39 46
15 15 15 15 17 18 19 20 21 23 26 30 34 38 40 43 45 46 43 33 38 44 47 49 53 51 50 48 47 42 44 45 43 43 44 46 46 44 42 42 40 38 45
14 14 14 15 16 17 18 18 20 25 29 34 38 41 44 45 46 45 42 38 39 38 40 46 47 48 49 49 47 46 43 41 39 42 42 45 45 45 42 40 36 36 42
14 13 13 14 15 15 16 18 23 27 31 35 38 40 43 45 45 41 41 43 42 44 43 48 43 44 41 43 45 44 42 40 37 41 43 39 39 42 39 32 29 31 33
13 14 14 14 14 14 15 19 23 27 31 33 34 35 39 42 39 36 37 39 42 42 44 46 45 45 46 46 46 44 42 40 41 42 40 38 37 39 32 24 24 26 30
13 13 14 14 14 13 16 18 23 27 29 30 32 33 35 35 40 42 37 38 38 42 43 43 43 44 45 46 47 49 45 40 41 39 37 36 34 30 25 21 20 21 24
14 14 14 13 13 16 21 25 29 24 27 30 33 34 35 38 39 39 36 40 44 43 41 41 42 43 45 45 44 46 47 41 39 38 36 33 29 25 21 19 17 18 20
13 12 12 12 15 20 23 26 29 33 36 36 32 35 36 37 38 33 39 41 44 42 40 40 41 41 42 43 42 44 44 40 38 36 34 30 26 22 19 17 16 18 18
13 13 13 14 18 21 24 26 29 31 34 36 38 36 36 37 37 37 36 36 38 40 40 39 38 39 40 40 40 39 40 38 34 33 30 27 24 20 16 14 14 16 17
14 14 14 17 20 22 25 27 29 32 34 35 37 37 39 40 40 40 37 35 35 35 36 37 37 37 37 37 38 37 36 36 33 30 27 26 22 18 15 13 12 13 14
14 14 16 19 21 24 27 28 30 32 34 36 36 35 36 36 39 38 38 35 34 34 34 34 35 35 35 35 35 35 34 31 31 28 25 23 20 17 14 12 10 10 12
15 16 19 21 23 25 27 28 30 32 34 36 38 37 36 36 37 38 37 35 34 32 31 32 33 32 32 33 33 33 32 30 27 27 25 21 18 15 13 11 10 9 10
16 18 20 22 25 26 28 29 31 33 35 36 37 39 39 39 39 38 37 36 35 34 32 31 31 31 29 29 29 29 29 28 26 24 23 21 17 13 11 10 9 9 9
18 20 21 23 25 27 29 31 33 35 36 37 38 39 40 40 40 38 37 36 35 35 33 32 31 30 29 28 27 27 26 24 22 21 20 19 16 12 9 7 6 6 8
19 21 23 24 26 29 31 33 35 37 38 38 40 41 41 41 40 39 37 36 35 35 34 33 32 30 28 27 25 24 24 22 20 19 18 17 15 12 10 8 7 8 9
20 21 23 25 27 30 33 36 38 38 40 41 42 42 42 42 41 40 38 37 36 36 35 34 33 30 27 26 24 23 22 21 19 19 19 17 14 12 10 10 9 10 10
Wind_Direction
218 218 353 7 356 354 350 349 348 345 338 335 332 330 327 324 320 317 315 314 314 314 314 311 312 310 308 309 309 306 303 299 280 290 289 288 285 281 277 276 270 262 255
79 9 2 4 353 350 347 345 340 335 334 333 332 332 332 331 329 327 327 327 327 328 329 327 326 323 320 316 312 307 305 301 291 290 291 288 285 283 281 277 273 262 253
22 9 357 348 347 348 345 341 339 338 339 341 340 340 339 339 337 335 335 335 336 336 334 330 328 327 324 323 319 313 310 306 300 287 290 290 287 285 281 276 272 266 257
3 357 351 348 348 345 344 344 344 344 345 346 347 348 348 346 345 343 341 340 338 337 336 335 335 334 331 328 323 320 316 309 299 288 284 285 283 285 281 274 270 266 260
354 355 353 349 346 343 342 344 345 346 348 351 352 355 354 350 348 345 341 340 338 338 337 337 337 337 337 334 326 322 316 308 301 294 289 285 281 276 275 280 274 270 262
353 349 347 344 343 344 345 346 349 350 355 358 357 356 355 351 348 345 340 338 339 337 336 336 336 336 334 332 327 318 310 305 301 296 290 285 283 277 275 274 271 260 250
345 342 342 345 346 347 348 349 353 358 359 360 358 357 355 351 349 345 342 340 338 337 335 334 333 334 334 330 326 318 310 302 294 294 290 285 283 281 277 267 260 253 255
340 339 345 348 348 348 348 351 357 360 359 359 360 358 358 354 350 347 343 340 338 335 333 333 332 330 329 327 320 315 312 309 305 294 288 290 288 288 284 277 269 263 262
336 342 347 346 346 346 349 354 357 359 358 1 2 0 355 351 350 347 343 338 335 333 332 330 328 327 326 321 319 315 312 309 310 299 291 287 285 281 278 278 268 250 233
338 341 343 341 344 346 352 356 357 357 360 1 1 355 351 349 346 342 341 335 332 330 325 325 326 322 321 320 315 313 309 310 314 311 304 295 289 288 279 274 269 247 234
339 339 338 341 341 350 354 352 355 360 357 354 352 349 346 342 340 339 338 334 334 324 324 326 323 322 319 316 315 310 308 307 307 303 305 302 292 293 277 278 277 263 242
333 335 336 336 344 348 348 352 353 353 352 349 345 344 344 342 341 340 338 337 331 327 325 320 322 320 319 319 318 317 309 310 308 310 306 302 295 295 283 284 281 271 256
332 331 333 336 339 344 348 352 353 350 347 346 345 343 342 342 341 341 340 333 331 328 320 319 318 321 322 322 324 322 322 320 314 310 308 304 299 303 298 283 275 258 241
321 319 327 332 337 342 350 351 348 347 346 346 344 342 341 340 340 344 333 335 335 328 324 319 324 325 329 330 332 332 331 331 329 317 318 317 308 301 294 280 263 252 240
317 323 327 331 337 343 346 344 346 347 348 345 343 340 338 338 340 331 333 335 331 327 325 330 333 336 336 337 339 340 340 339 334 329 325 327 313 298 287 272 255 246 236
311 320 328 331 330 331 333 337 343 343 343 342 341 339 336 335 334 333 334 332 332 335 332 336 338 340 341 342 343 343 344 344 339 336 337 329 315 301 286 267 256 244 234
315 320 316 314 321 329 334 338 338 340 339 340 340 338 336 334 333 334 332 333 334 334 339 340 342 343 342 343 343 346 343 344 345 344 339 328 318 307 284 274 259 241 230
305 304 307 313 324 332 337 336 334 335 337 340 343 340 337 335 336 336 334 332 332 337 340 340 340 342 342 343 343 344 346 346 349 347 342 331 323 312 295 282 261 243 228
303 302 301 314 327 332 332 331 333 333 334 336 339 339 336 335 336 336 333 332 333 334 337 338 339 339 340 341 342 342 347 348 350 349 346 338 330 321 305 289 269 248 233
295 295 307 320 324 326 328 330 331 332 333 334 336 336 335 336 336 334 333 332 331 332 334 334 337 338 338 339 340 341 343 350 351 351 350 346 337 325 311 300 280 257 233
289 298 308 314 320 325 327 329 329 329 330 330 331 333 334 330 329 330 330 332 330 329 331 332 333 335 336 336 338 339 340 342 349 349 349 350 343 329 319 307 290 268 240
296 303 311 315 319 322 324 326 326 326 327 327 327 329 329 327 326 326 327 328 328 326 327 328 329 331 333 334 336 336 336 337 339 344 349 346 343 335 322 308 293 269 249
296 302 309 314 317 319 323 326 325 325 325 324 325 326 326 325 324 325 325 325 326 327 325 324 326 326 328 329 332 333 333 334 333 333 335 340 338 332 317 303 289 269 243
300 306 309 311 316 321 323 325 325 324 323 323 324 324 324 323 322 323 324 324 324 325 325 324 321 322 322 324 327 329 329 330 329 328 324 323 329 329 321 305 279 252 235
304 306 309 314 320 323 324 325 324 323 322 323 323 323 322 321 321 323 324 324 323 323 324 323 322 318 318 317 319 322 325 326 326 326 327 319 313 310 305 290 270 249 233
301 304 311 317 321 323 324 324 322 323 323 323 323 322 321 321 322 322 323 323 322 322 322 322 321 319 313 312 313 315 320 325 325 326 322 320 314 304 292 276 262 249 239